This is the latest recevied weather packets stored in our database for station/object KP4FJC. If no packets are shown the sender has not sent any weather packets the latest 10 day(s).
| Time | Temp. | Humidity | Pressure | Rain* | Wind** | Luminosity | Snow |
|---|---|---|---|---|---|---|---|
| 1777591697 | 25° C | 97% | 1014.7 hPa | 4.83 mm | - | 0 W/m² | - |
| 1777591392 | 25° C | 98% | 1014.7 hPa | 3.05 mm | - | 0 W/m² | - |
| 1777591089 | 25° C | 98% | 1014.6 hPa | 3.05 mm | - | 0 W/m² | - |
| 1777590784 | 25° C | 97% | 1014.3 hPa | 3.05 mm | - | 0 W/m² | - |
| 1777590480 | 25° C | 97% | 1014.3 hPa | 3.05 mm | - | 0 W/m² | - |
| 1777590177 | 25.56° C | 97% | 1014.3 hPa | 3.05 mm | - | 0 W/m² | - |
| 1777589873 | 25° C | 97% | 1014.3 hPa | 3.05 mm | - | 0 W/m² | - |
| 1777589569 | 25.56° C | 97% | 1014.2 hPa | 3.05 mm | - | 0 W/m² | - |
| 1777589267 | 25.56° C | 96% | 1014.2 hPa | 4.83 mm | - | 0 W/m² | - |
| 1777588964 | 25.56° C | 96% | 1014 hPa | 4.32 mm | - | 0 W/m² | - |
| 1777588654 | 25.56° C | 95% | 1014 hPa | 3.05 mm | - | 1 W/m² | - |
| 1777588350 | 26.11° C | 94% | 1014.2 hPa | 1.78 mm | - | 1 W/m² | - |
| 1777588046 | 26.11° C | 94% | 1014.1 hPa | 0 mm | - | 1 W/m² | - |
| 1777587742 | 26.67° C | 93% | 1013.9 hPa | 1.27 mm | - | 2 W/m² | - |
| 1777587436 | 26.67° C | 92% | 1013.7 hPa | 1.27 mm | - | 4 W/m² | - |
| 1777587134 | 26.11° C | 91% | 1013.3 hPa | 0 mm | - | 5 W/m² | - |
| 1777586829 | 26.67° C | 91% | 1013.5 hPa | 0 mm | - | 6 W/m² | - |
| 1777586524 | 26.67° C | 90% | 1013.4 hPa | 0 mm | - | 7 W/m² | - |
| 1777586220 | 26.67° C | 89% | 1013.4 hPa | 0 mm | - | 8 W/m² | - |
| 1777585917 | 26.67° C | 89% | 1013.3 hPa | 1.78 mm | - | 9 W/m² | - |
| 1777585612 | 26.67° C | 88% | 1013.5 hPa | 1.78 mm | - | 12 W/m² | - |
| 1777585308 | 26.67° C | 87% | 1013.4 hPa | 0 mm | - | 12 W/m² | - |
| 1777585002 | 26.67° C | 87% | 1013.2 hPa | 0 mm | - | 15 W/m² | - |
| 1777584699 | 26.67° C | 87% | 1013.1 hPa | 0 mm | - | 16 W/m² | - |
| 1777584397 | 26.67° C | 86% | 1013.1 hPa | 0 mm | - | 14 W/m² | - |
* Rain latest hour (hover to see other rain measurements)
** Current wind speed in m/s (hover to see current wind gust speed)